"Pseudo-MPEC" for P10LPUO

Created 2019 Feb 19 10:18:05 UT using Find_Orb

Click here for an explanation of pseudo-MPECs

 
 Astrometry: 
     P10LPUO  C2019 01 24#gNbq%8%?Astrometryq]?GAN;,VB?=]aWqDv/GwvO_Gld9K^1bWF51
     P10LPUO  C2019 01 24ob3,Jj,u5)^65f?\2^v7vay-s\lF%bohu!lf.A!k%7K:WjQi(MZXF51
     P10LPUO  C2019 01 24-A@VcWU\ev7V!([p`LG).tdgbCRI9d04+fw!wR7=(NM]V/Sp[CN0F51
     P10LPUO  C2019 01 24#h2CegAq$^yRe]ct6Y/kYSswcd9Wm.56tX!SM@kLMWc6QToaE):ZF51
     P10LPUO |C2019 01 27O1taf6o91`@^q)NI]wd\XU;57h'+='4Nv;lE.#+N;W2iZIgD`G;b807
     P10LPUO |C2019 01 27TLwVl#G-)vd;eDdRBJx?CLGpJKDG[!m^HG?/P;skZq0g94A7T][Z807
     P10LPUO |C2019 01 2708w#v$o/Ud]ETd2nyS_-jtg)Ls8(o@GYqG^@09+mmredacted;*X807
     P10LPUO 1C2019 01 28m*+w0XilMl3N%^Oc$:Vc-Jmc\c39fwWZ[1ktT]!J*bYCgMP[$xx`Q62
     P10LPUO 1C2019 01 28bDZMi.'c(Qm.m'+ZT+eicch#$TVRqtn;TA^bIdL+o?mcxwU^xG%fQ62
     P10LPUO 1C2019 01 280_`dZDM]cSh2L5uM4M\riZsI!x-O4QAD6'.q5.iBwUo2+vXXr!lFQ62
     P10LPUO KC2019 01 29=rVSSe$YT3wdXFPcBQuT#v#!HHfyZ)q77$Vo8d\:;FLaQi)(]_o8I47
     P10LPUO KC2019 01 29ytdjeh4equ=!hHEK*ccj2!-\;rMTK!rf:A'qpbiK*kpUv4@FsM)4I47
     P10LPUO KC2019 01 31fw/]Q*#F%07v@gd8-d2ZGF3WC8h7$?F;KPZN*`N0K?`k-J):4;O6I47
     P10LPUO KC2019 01 31PY!wtclickLM.T2o\Bt(ec,H#t,04I$M#:#6;1B(?P:h36bir'R$I47
     P10LPUO KC2019 01 31\?AcB[fYPADL#=#q`j-3%*?]4(56xxL=?5:TUM+vKWyB4J($W+76I47
     P10LPUO KC2019 01 31m7a?/[.#5cPt:URmwfEOe6@.Gme`V2wr+,S9/BV9=pnodF5\LZ1kI47
     P10LPUO KC2019 02 01X!PUM[t%#*s@!AiegXGm92^dd7\cUn_#l@?LnyOyroTm8?[q@Nd,I47
     P10LPUO KC2019 02 0142,MiRn/$bTo4#I'pBbA7+IXgs6+a$qmR`EI#eW2y5['_XCt41ClI47
     P10LPUO KC2019 02 02bK_J_LMV7_BkNWL35o90*$SPVJ3G(A/-Z1Wt7_*OxLtL)F9?;,Oy474
     P10LPUO KC2019 02 02g5^PCsaTGymQ(kWq`0Y=bqE!RAAWq*3MQ2@\nf9p]SrngidO:Et;474
     P10LPUO KC2019 02 028@uKG7h+T/Uk'_)q$Y1I-'H4;i6`here\05-X;EW*.@`y\g9f8qy474
     P10LPUO KC2019 02 02f0`Huu/-jT-!9;Ayn#f-CYXB]ROhuIh;4(c/#rG'#H@rCsfF9NDr474
     P10LPUO ^C2019 02 04.65889912 17 24.622-38 39 14.69   ~24Jm 19.10GVNEOCP568
     P10LPUO ^C2019 02 04.66008012 17 24.589-38 39 15.17   ~24Jm 19.29GVNEOCP568
     P10LPUO ^C2019 02 04.66125912 17 24.558-38 39 15.62   ~24Jm 19.35GVNEOCP568
     P10LPUO  C2019 02 064??OSGlb$XKy[MsSpl?q`G;XT'hmwe[+0oRV11ti\tJdm#Z:v+DFW85
     P10LPUO  C2019 02 06fZAqDj#!4NjKHn5pqIdGUdk!vw)wvbcV]4M7(L)LQ+@f!kie9D)^W85
     P10LPUO  C2019 02 06F@i]TC1kxmq'tH2:hh`X-SV7kV=':t:::]Qn_X01_*YLx:^ZGk6^W85
     P10LPUO  C2019 02 06X/C;`7v#QT3bnqu@oQ4.1[yt\I)!3YMVO3H%6y3#;'tj!DB5R-K+W85
     P10LPUO KC2019 02 07PaV#r+k@0'?x_4%YX[Wp/bA;K@]^oZh06F(B7H,rA^W/dkBEHvoX474
     P10LPUO KC2019 02 07HD6k4\M0sPqlKUI5?nW=ShO8YforHj@pK`pRCCcpsZby5f4/Zk'Q474
     P10LPUO KC2019 02 078sbx@Inslk\?%+ER:Ywv1uk72NtJGv3y=6G6\8LxWBWOM'B6XGTc474
     P10LPUO KC2019 02 15cW7Zm^JOQvN.r+8EbsAxR_y,#7L:$SgNDGA]KK4GSvs84.:R`SQFI47
     P10LPUO KC2019 02 15$hHi8_:cs;p4T^,/lFa,TmR06$[7m9YcH!!uW4EEi)QRvRm(,:5pI47
     P10LPUO KC2019 02 15Ja%cD8OX]t!fL-X!ydo4ZMfu42v^MR=6q;(NeuO,!7Yl!wa5WacxI47
     P10LPUO KC2019 02 17e,(6H0kvPf%6g8.:wJOT1l,HCp52bU?jkgT\c^BtC_3CG'@qVO]#L29
     P10LPUO KC2019 02 17HPx8u?F2\+4$YX=lUeMP6*%Ma:3-.@H^:Y7;ksFZx%loLGZywK]VL29
     P10LPUO KC2019 02 17sLN1EexplanationBE\]jV)J.c#i8BocL;$w'0T7*f\M10!Nn\1vL29

Station data:
(474) Mount John Observatory, Lake Tekapo  (S43.987388 E170.464960)  New
   Zealand.  Observers A. C. Gilmore, P. M. Kilmartin. Measurer P. M.
   Kilmartin. 1.0-m f/7.7 reflector + CCD.
(568) Mauna Kea  (N19.826116 W155.472200)  US/Hawaii.
(807) Cerro Tololo Observatory, La Serena  (S30.169136 W70.805900)  Chile.
   1.5-m Ritchey-Chrétien.
(F51) Pan-STARRS 1, Haleakala  (N20.707235 W156.255910)  US/Hawaii.
   Observers N. Primak, A. Schultz, S. Watters, J. Thiel, T. Goggia. Measurer
   PS1 Science Consortium. 1.8-m Ritchey-Chrétien + CCD.
(I47) Pierre Auger Observatory, Malargüe  (S35.495442 W69.449700)  Argentina.
(L29) Drebach-South Observatory, Windhoek  (S23.460102 E18.016900)  Namibia.
(Q62) iTelescope Observatory, Siding Spring  (S31.273289 E149.064420)
   Australia/NSW. 0.50-m f/6.8 astrograph + CCD + focal reducer, 0.70-m f/6.6
   astrograph + CCD.
(W85) Cerro Tololo-LCO A  (S30.167407 W70.804810)  Chile.  Observers T.
   Lister, S. Greenstreet, E. Gomez. Measurer T. Lister. 1.0-m f/8
   Ritchey-Chrétien + CCD.

Orbital elements:  P10LPUO
   Perihelion 2021 Jan 19.007174 +/- 2.03 TT =  0:10:19 (JD 2459233.507174)
Epoch 2019 Feb 17.0 TT = JDT 2458531.5                        AutoNEOCP
q   6.82765232 +/- 0.0182           (J2000 ecliptic)
H   10.2  G 0.15                    Peri.  263.81531 +/- 0.27
                                    Node   358.39847 +/- 0.025
e   1.0019783 +/- 0.00499           Incl.   66.51647 +/- 0.030
From 38 observations 2019 Jan. 24-Feb. 17; mean residual 0".36
Residuals in arcseconds: 
190124 F51  .03+  .28-    190131 I47  .10+  .38-    190206 W85  .32-  .19-    
190124 F51  .07-  .21-    190131 I47  .42+  .60+    190206 W85  .32-  .27-    
190124 F51  .01-  .01-    190131 I47  .63-  .37+    190206 W85  .33-  .34-    
190124 F51  .18-  .17-    190201 I47  .70+  .25+    190207 474  .08+  .04-    
190127 807  .06-  .13+    190201 I47  .49+  .52+    190207 474  .13+  .02-    
190127 807  .12-  .09+    190202 474  .26-  .42-    190207 474  .18+  .21-    
190127 807  .26-  .09+    190202 474  .11-  .47+    190215 I47  .25+  .06+    
190128 Q62  .12+  .34-    190202 474  .77-  .84-    190215 I47  .41+  .15-    
190128 Q62  .05+  .44-    190202 474  .09+  .45-    190215 I47  .10+  .03+    
190128 Q62  .14-  .54-    190204 568  .13+  .28+    190217 L29  .03-  .17-    
190129 I47  1.0+  .81+    190204 568  .05+  .18+    190217 L29  .11-  .12+    
190129 I47  .19+  .43+    190204 568  .01-  .11+    190217 L29  .30-  .31+    
190131 I47  .59-  1.0+    190206 W85  .25-  .25-    

Ephemerides (geocentric):
Date (UTC) HH   RA              Dec         delta   r     elong  mag " sig PA
---- -- -- --  -------------   -----------  ------ ------ -----  --- ---- ---
2019 02 19 10  12 11 03.709   -39 51 08.38  7.6363 8.1956 121.5 19.6 .196 128
2019 02 19 11  12 11 02.460   -39 51 19.08  7.6357 8.1954 121.5 19.6 .198 128
2019 02 19 12  12 11 01.211   -39 51 29.77  7.6351 8.1953 121.5 19.6 .200 128
2019 02 19 13  12 10 59.961   -39 51 40.45  7.6345 8.1952 121.6 19.6 .202 128
2019 02 19 14  12 10 58.710   -39 51 51.13  7.6339 8.1950 121.6 19.6 .203 128
2019 02 19 15  12 10 57.458   -39 52 01.79  7.6334 8.1949 121.6 19.6 .205 128
2019 02 19 16  12 10 56.206   -39 52 12.45  7.6328 8.1947 121.6 19.6 .207 128
2019 02 19 17  12 10 54.952   -39 52 23.10  7.6322 8.1946 121.7 19.6 .209 128
2019 02 19 18  12 10 53.698   -39 52 33.74  7.6316 8.1944 121.7 19.6 .211 128
2019 02 19 19  12 10 52.442   -39 52 44.37  7.6311 8.1943 121.7 19.6 .212 128
2019 02 19 20  12 10 51.186   -39 52 54.99  7.6305 8.1941 121.8 19.6 .214 128
2019 02 19 21  12 10 49.929   -39 53 05.60  7.6299 8.1940 121.8 19.6 .216 128
2019 02 19 22  12 10 48.671   -39 53 16.20  7.6293 8.1939 121.8 19.6 .218 128
2019 02 19 23  12 10 47.412   -39 53 26.79  7.6288 8.1937 121.9 19.6 .220 128
2019 02 20 00  12 10 46.152   -39 53 37.38  7.6282 8.1936 121.9 19.6 .222 128
2019 02 20 01  12 10 44.891   -39 53 47.95  7.6276 8.1934 121.9 19.6 .224 128
2019 02 20 02  12 10 43.629   -39 53 58.52  7.6270 8.1933 122.0 19.6 .225 128
2019 02 20 03  12 10 42.366   -39 54 09.08  7.6265 8.1931 122.0 19.6 .227 128
2019 02 20 04  12 10 41.103   -39 54 19.63  7.6259 8.1930 122.0 19.6 .229 128
2019 02 20 05  12 10 39.839   -39 54 30.17  7.6253 8.1928 122.0 19.6 .231 128
2019 02 20 06  12 10 38.573   -39 54 40.70  7.6247 8.1927 122.1 19.6 .233 128
2019 02 20 07  12 10 37.307   -39 54 51.22  7.6242 8.1926 122.1 19.6 .235 128
2019 02 20 08  12 10 36.040   -39 55 01.73  7.6236 8.1924 122.1 19.6 .237 128
2019 02 20 09  12 10 34.772   -39 55 12.23  7.6230 8.1923 122.2 19.6 .239 128
2019 02 20 10  12 10 33.503   -39 55 22.73  7.6225 8.1921 122.2 19.6 .240 128
2019 02 20 11  12 10 32.234   -39 55 33.21  7.6219 8.1920 122.2 19.6 .242 128
2019 02 20 12  12 10 30.963   -39 55 43.69  7.6213 8.1918 122.3 19.6 .244 128
2019 02 20 13  12 10 29.691   -39 55 54.15  7.6208 8.1917 122.3 19.6 .246 128
2019 02 20 14  12 10 28.419   -39 56 04.61  7.6202 8.1915 122.3 19.6 .248 128
2019 02 20 15  12 10 27.146   -39 56 15.06  7.6196 8.1914 122.4 19.6 .250 128
2019 02 20 16  12 10 25.871   -39 56 25.50  7.6190 8.1912 122.4 19.6 .252 128
2019 02 20 17  12 10 24.596   -39 56 35.93  7.6185 8.1911 122.4 19.6 .254 128
2019 02 20 18  12 10 23.320   -39 56 46.35  7.6179 8.1910 122.4 19.6 .256 128
2019 02 20 19  12 10 22.044   -39 56 56.76  7.6173 8.1908 122.5 19.6 .258 129
2019 02 20 20  12 10 20.766   -39 57 07.16  7.6168 8.1907 122.5 19.6 .260 129
2019 02 20 21  12 10 19.487   -39 57 17.55  7.6162 8.1905 122.5 19.6 .262 129
2019 02 20 22  12 10 18.208   -39 57 27.94  7.6156 8.1904 122.6 19.6 .264 129
2019 02 20 23  12 10 16.927   -39 57 38.31  7.6151 8.1902 122.6 19.6 .266 129
2019 02 21 00  12 10 15.646   -39 57 48.68  7.6145 8.1901 122.6 19.6 .268 129
2019 02 21 01  12 10 14.364   -39 57 59.04  7.6139 8.1899 122.7 19.6 .270 129
2019 02 21 02  12 10 13.081   -39 58 09.38  7.6134 8.1898 122.7 19.6 .272 129
2019 02 21 03  12 10 11.797   -39 58 19.72  7.6128 8.1897 122.7 19.6 .274 129
2019 02 21 04  12 10 10.512   -39 58 30.05  7.6122 8.1895 122.8 19.6 .276 129
2019 02 21 05  12 10 09.227   -39 58 40.37  7.6117 8.1894 122.8 19.6 .278 129
2019 02 21 06  12 10 07.940   -39 58 50.68  7.6111 8.1892 122.8 19.6 .280 129
2019 02 21 07  12 10 06.653   -39 59 00.98  7.6105 8.1891 122.8 19.6 .282 129
2019 02 21 08  12 10 05.364   -39 59 11.27  7.6100 8.1889 122.9 19.6 .284 129
2019 02 21 09  12 10 04.075   -39 59 21.56  7.6094 8.1888 122.9 19.6 .286 129